| time (UTC) | temp F | wind direction | speed MPH | gust MPH | rain 1hr in | rain 24hr in | rain mn in | humidity % | barometer mb |
| 20260904221748 | 70 | 85 | 0.0 | 0.0 | 0.00 | 0.03 | 0.03 | 87 | 1014.1 |
| 20260904221248 | 70 | 316 | 0.0 | 0.0 | 0.00 | 0.03 | 0.03 | 87 | 1014.1 |
| 20260904220748 | 70 | 11 | 0.0 | 0.0 | 0.00 | 0.03 | 0.03 | 87 | 1014.1 |
| 20260904215757 | 70 | 355 | 0.0 | 0.0 | 0.00 | 0.03 | 0.03 | 86 | 1014.2 |
| 20260904215257 | 70 | 15 | 0.0 | 0.0 | 0.00 | 0.03 | 0.03 | 86 | 1014.1 |
| 20260904214757 | 70 | 355 | 0.0 | 0.0 | 0.00 | 0.03 | 0.03 | 87 | 1014.1 |
| 20260904214257 | 70 | 355 | 0.0 | 0.0 | 0.00 | 0.03 | 0.03 | 86 | 1014.1 |
| 20260904213757 | 70 | 48 | 0.0 | 0.0 | 0.00 | 0.03 | 0.03 | 86 | 1014.2 |
| 20260904213257 | 70 | 71 | 0.0 | 0.0 | 0.00 | 0.03 | 0.03 | 86 | 1014.2 |
| 20260904212757 | 70 | 43 | 0.0 | 0.0 | 0.00 | 0.03 | 0.03 | 86 | 1014.2 |
| 20260904212256 | 71 | 69 | 0.0 | 0.0 | 0.00 | 0.03 | 0.03 | 86 | 1014.3 |
| 20260904211757 | 71 | 5 | 0.0 | 0.0 | 0.00 | 0.03 | 0.03 | 86 | 1014.4 |
| 20260904211257 | 71 | 355 | 0.0 | 0.0 | 0.00 | 0.03 | 0.03 | 85 | 1014.3 |
| 20260904210757 | 71 | 78 | 0.0 | 0.0 | 0.00 | 0.03 | 0.03 | 85 | 1014.3 |
| 20260904210257 | 71 | 35 | 0.0 | 0.0 | 0.00 | 0.03 | 0.03 | 85 | 1014.3 |
| 20260904205757 | 71 | 38 | 0.0 | 0.0 | 0.00 | 0.03 | 0.03 | 84 | 1014.4 |
| 20260904205257 | 71 | 117 | 0.0 | 0.0 | 0.00 | 0.03 | 0.03 | 83 | 1014.5 |
| 20260904204757 | 72 | 98 | 0.0 | 0.0 | 0.00 | 0.03 | 0.03 | 83 | 1014.4 |
| 20260904204256 | 72 | 55 | 0.0 | 0.0 | 0.00 | 0.03 | 0.03 | 83 | 1014.3 |
| 20260904203757 | 72 | 355 | 0.0 | 0.0 | 0.00 | 0.03 | 0.03 | 83 | 1014.3 |
| 20260904203256 | 72 | 16 | 0.0 | 0.0 | 0.00 | 0.03 | 0.03 | 84 | 1014.4 |
| 20260904202757 | 72 | 88 | 0.0 | 0.0 | 0.00 | 0.03 | 0.03 | 84 | 1014.2 |
| 20260904202257 | 73 | 12 | 0.0 | 0.0 | 0.00 | 0.03 | 0.03 | 83 | 1014.3 |
| 20260904201756 | 73 | 58 | 0.0 | 0.0 | 0.00 | 0.03 | 0.03 | 82 | 1014.4 |
| 20260904201257 | 73 | 67 | 0.0 | 0.0 | 0.00 | 0.03 | 0.03 | 82 | 1014.2 |
| 20260904200757 | 73 | 49 | 0.0 | 0.0 | 0.00 | 0.03 | 0.03 | 83 | 1014.3 |
| 20260904200257 | 73 | 5 | 0.0 | 0.0 | 0.00 | 0.03 | 0.03 | 82 | 1014.2 |
| 20260904195757 | 74 | 34 | 0.0 | 0.0 | 0.00 | 0.03 | 0.03 | 81 | 1014.2 |
| 20260904195257 | 74 | 36 | 0.0 | 0.0 | 0.00 | 0.03 | 0.03 | 82 | 1014.2 |
| 20260904194256 | 74 | 61 | 0.0 | 0.0 | 0.00 | 0.03 | 0.03 | 81 | 1014.2 |
| 20260904193756 | 74 | 51 | 0.0 | 0.0 | 0.00 | 0.03 | 0.03 | 81 | 1014.2 |
| 20260904193257 | 74 | 71 | 0.0 | 0.0 | 0.00 | 0.03 | 0.03 | 80 | 1014.1 |
| 20260904192756 | 75 | 43 | 0.0 | 0.0 | 0.00 | 0.03 | 0.03 | 81 | 1014.2 |
| 20260904192257 | 75 | 63 | 0.0 | 0.0 | 0.00 | 0.03 | 0.03 | 80 | 1014.1 |
| 20260904191757 | 75 | 55 | 0.0 | 0.0 | 0.00 | 0.03 | 0.03 | 80 | 1014.2 |
| 20260904190757 | 75 | 53 | 0.0 | 0.0 | 0.00 | 0.03 | 0.03 | 81 | 1014.1 |
| 20260904185757 | 75 | 323 | 0.0 | 0.0 | 0.00 | 0.03 | 0.03 | 79 | 1014.1 |
| 20260904185256 | 76 | 347 | 0.0 | 0.0 | 0.00 | 0.03 | 0.03 | 79 | 1014.1 |
| 20260904184756 | 76 | 328 | 0.0 | 0.0 | 0.00 | 0.03 | 0.03 | 78 | 1014.1 |
| 20260904184256 | 76 | 36 | 0.0 | 0.0 | 0.00 | 0.03 | 0.03 | 79 | 1014.0 |
| 20260904183756 | 76 | 65 | 0.0 | 0.0 | 0.00 | 0.03 | 0.03 | 80 | 1014.0 |
| 20260904183257 | 75 | 61 | 0.0 | 0.0 | 0.00 | 0.03 | 0.03 | 80 | 1013.9 |
| 20260904182756 | 75 | 70 | 0.0 | 0.0 | 0.00 | 0.03 | 0.03 | 82 | 1014.0 |
| 20260904182256 | 74 | 69 | 0.0 | 0.0 | 0.00 | 0.03 | 0.03 | 83 | 1014.2 |
| 20260904181757 | 74 | 32 | 0.0 | 0.0 | 0.00 | 0.03 | 0.03 | 83 | 1014.3 |
| 20260904181256 | 74 | 42 | 0.0 | 0.0 | 0.00 | 0.03 | 0.03 | 83 | 1014.4 |
| 20260904180756 | 74 | 67 | 0.0 | 0.0 | 0.00 | 0.03 | 0.03 | 83 | 1014.4 |
| 20260904175754 | 75 | 61 | 0.0 | 0.0 | 0.00 | 0.03 | 0.03 | 83 | 1014.3 |
| 20260904175254 | 75 | 57 | 0.0 | 0.0 | 0.00 | 0.03 | 0.03 | 83 | 1014.3 |
| 20260904174254 | 75 | 63 | 0.0 | 0.0 | 0.00 | 0.03 | 0.03 | 82 | 1014.4 |
| 20260904173754 | 75 | 163 | 0.0 | 0.0 | 0.00 | 0.03 | 0.03 | 83 | 1014.4 |
| 20260904172738 | 75 | 156 | 0.0 | 0.0 | 0.00 | 0.03 | 0.03 | 83 | 1014.5 |
| 20260904172238 | 75 | 71 | 0.0 | 0.0 | 0.00 | 0.03 | 0.03 | 83 | 1014.6 |
| 20260904171738 | 74 | 158 | 0.0 | 0.0 | 0.00 | 0.03 | 0.03 | 83 | 1014.5 |
| 20260904171238 | 74 | 142 | 0.0 | 0.0 | 0.00 | 0.03 | 0.03 | 84 | 1014.5 |
| 20260904170238 | 73 | 70 | 0.0 | 0.0 | 0.00 | 0.03 | 0.03 | 84 | 1014.4 |
| 20260904165738 | 73 | 118 | 0.0 | 0.0 | 0.00 | 0.03 | 0.03 | 84 | 1014.5 |
| 20260904165238 | 73 | 37 | 0.0 | 0.0 | 0.00 | 0.03 | 0.03 | 84 | 1014.4 |
| 20260904164738 | 73 | 35 | 0.0 | 0.0 | 0.00 | 0.03 | 0.03 | 84 | 1014.4 |
| 20260904164238 | 72 | 130 | 0.0 | 0.0 | 0.00 | 0.03 | 0.03 | 84 | 1014.4 |
| 20260904163738 | 72 | 59 | 0.0 | 0.0 | 0.00 | 0.03 | 0.03 | 84 | 1014.4 |
| 20260904163238 | 72 | 146 | 0.0 | 0.0 | 0.00 | 0.03 | 0.03 | 84 | 1014.5 |
| 20260904162738 | 72 | 71 | 0.0 | 0.0 | 0.00 | 0.03 | 0.03 | 83 | 1014.4 |
| 20260904162238 | 71 | 196 | 0.0 | 0.0 | 0.00 | 0.03 | 0.03 | 83 | 1014.3 |
| 20260904161738 | 71 | 61 | 0.0 | 0.0 | 0.00 | 0.03 | 0.03 | 84 | 1014.2 |
| 20260904161238 | 70 | 124 | 0.0 | 0.0 | 0.00 | 0.03 | 0.03 | 85 | 1014.1 |
| 20260904160738 | 70 | 113 | 0.0 | 0.0 | 0.00 | 0.03 | 0.03 | 85 | 1014.1 |
| 20260904160238 | 70 | 49 | 0.0 | 0.0 | 0.00 | 0.03 | 0.03 | 85 | 1014.2 |
| 20260904155738 | 70 | 95 | 0.0 | 0.0 | 0.00 | 0.03 | 0.03 | 85 | 1014.1 |
| 20260904154739 | 70 | 28 | 0.0 | 0.0 | 0.00 | 0.03 | 0.03 | 86 | 1014.3 |
| 20260904154238 | 69 | 206 | 0.0 | 0.0 | 0.00 | 0.03 | 0.03 | 86 | 1014.5 |
| 20260904153738 | 69 | 196 | 0.0 | 0.0 | 0.00 | 0.03 | 0.03 | 87 | 1014.2 |
| 20260904153238 | 68 | 129 | 0.0 | 0.0 | 0.00 | 0.03 | 0.03 | 87 | 1014.1 |
| 20260904152739 | 68 | 55 | 0.0 | 0.0 | 0.00 | 0.03 | 0.03 | 88 | 1014.4 |
| 20260904152238 | 68 | 128 | 0.0 | 0.0 | 0.00 | 0.03 | 0.03 | 87 | 1014.7 |
| 20260904151738 | 68 | 69 | 0.0 | 0.0 | 0.00 | 0.03 | 0.03 | 88 | 1015.0 |
| 20260904151238 | 68 | 92 | 0.0 | 0.0 | 0.00 | 0.03 | 0.03 | 87 | 1015.1 |
| 20260904145738 | 67 | 80 | 0.0 | 0.0 | 0.00 | 0.03 | 0.03 | 88 | 1015.0 |
| 20260904145238 | 67 | 51 | 0.0 | 0.0 | 0.00 | 0.03 | 0.03 | 88 | 1015.1 |
| 20260904144738 | 67 | 42 | 0.0 | 0.0 | 0.00 | 0.03 | 0.03 | 88 | 1015.2 |
| 20260904144238 | 67 | 33 | 0.0 | 0.0 | 0.00 | 0.03 | 0.03 | 89 | 1015.2 |
| 20260904143738 | 67 | 66 | 0.0 | 0.0 | 0.00 | 0.03 | 0.03 | 88 | 1015.2 |
| 20260904143238 | 67 | 69 | 0.0 | 0.0 | 0.00 | 0.03 | 0.03 | 88 | 1015.2 |
| 20260904142738 | 67 | 71 | 0.0 | 0.0 | 0.00 | 0.03 | 0.03 | 88 | 1015.1 |
| 20260904142238 | 67 | 77 | 0.0 | 0.0 | 0.00 | 0.03 | 0.03 | 88 | 1014.9 |
| 20260904141738 | 67 | 33 | 0.0 | 0.0 | 0.00 | 0.03 | 0.03 | 88 | 1014.9 |
| 20260904141238 | 67 | 46 | 0.0 | 0.0 | 0.00 | 0.03 | 0.03 | 88 | 1014.9 |
| 20260904140738 | 67 | 20 | 0.0 | 0.0 | 0.00 | 0.03 | 0.03 | 88 | 1015.0 |
| 20260904135734 | 67 | 101 | 0.0 | 0.0 | 0.00 | 0.03 | 0.03 | 89 | 1015.1 |
| 20260904135234 | 67 | 118 | 0.0 | 0.0 | 0.00 | 0.03 | 0.03 | 89 | 1015.2 |
| 20260904134734 | 66 | 74 | 0.0 | 0.0 | 0.00 | 0.03 | 0.03 | 90 | 1014.9 |
| 20260904134234 | 66 | 119 | 0.0 | 0.0 | 0.00 | 0.03 | 0.03 | 90 | 1014.8 |
| 20260904133235 | 65 | 11 | 0.0 | 0.0 | 0.00 | 0.03 | 0.03 | 90 | 1014.4 |
| 20260904132734 | 65 | 125 | 0.0 | 0.0 | 0.00 | 0.03 | 0.03 | 90 | 1014.3 |
| 20260904131735 | 65 | 116 | 0.0 | 0.0 | 0.00 | 0.03 | 0.03 | 91 | 1014.5 |
| 20260904131235 | 65 | 51 | 0.0 | 0.0 | 0.00 | 0.03 | 0.03 | 91 | 1014.4 |
| 20260904130735 | 64 | 86 | 0.0 | 0.0 | 0.00 | 0.03 | 0.03 | 92 | 1014.4 |
| 20260904130234 | 64 | 58 | 0.0 | 0.0 | 0.00 | 0.03 | 0.03 | 92 | 1014.6 |
| 20260904125234 | 64 | 5 | 0.0 | 0.0 | 0.00 | 0.03 | 0.03 | 93 | 1014.6 |
| 20260904124235 | 64 | 34 | 0.0 | 0.0 | 0.00 | 0.03 | 0.03 | 93 | 1014.3 |
| 20260904123734 | 64 | 90 | 0.0 | 0.0 | 0.00 | 0.03 | 0.03 | 93 | 1014.3 |
| 20260904123234 | 64 | 129 | 0.0 | 0.0 | 0.00 | 0.03 | 0.03 | 93 | 1014.3 |
| 20260904122734 | 63 | 30 | 0.0 | 0.0 | 0.01 | 0.03 | 0.03 | 93 | 1014.3 |
| 20260904122234 | 63 | 59 | 0.0 | 0.0 | 0.01 | 0.03 | 0.03 | 93 | 1014.5 |
| 20260904121734 | 63 | 48 | 0.0 | 0.0 | 0.01 | 0.03 | 0.03 | 94 | 1014.4 |
| 20260904121234 | 63 | 345 | 0.0 | 0.0 | 0.01 | 0.03 | 0.03 | 94 | 1014.2 |
| 20260904120735 | 63 | 53 | 0.0 | 0.0 | 0.01 | 0.03 | 0.03 | 94 | 1014.3 |
| 20260904115735 | 63 | 117 | 0.0 | 0.0 | 0.01 | 0.03 | 0.03 | 94 | 1014.1 |
| 20260904115235 | 63 | 103 | 0.0 | 0.0 | 0.02 | 0.03 | 0.03 | 94 | 1014.4 |
| 20260904114734 | 63 | 40 | 0.0 | 0.0 | 0.02 | 0.03 | 0.03 | 94 | 1014.4 |
| 20260904114235 | 63 | 48 | 0.0 | 0.0 | 0.02 | 0.03 | 0.03 | 94 | 1014.4 |
| 20260904113734 | 63 | 74 | 0.0 | 0.0 | 0.02 | 0.03 | 0.03 | 94 | 1014.4 |
| 20260904113235 | 64 | 65 | 0.0 | 0.0 | 0.02 | 0.03 | 0.03 | 94 | 1014.1 |
| 20260904112734 | 64 | 76 | 0.0 | 0.0 | 0.02 | 0.02 | 0.02 | 94 | 1014.0 |
| 20260904111734 | 64 | 90 | 0.0 | 0.0 | 0.02 | 0.02 | 0.02 | 94 | 1013.7 |
| 20260904111234 | 64 | 275 | 0.0 | 0.0 | 0.02 | 0.02 | 0.02 | 94 | 1013.8 |
| 20260904110735 | 64 | 136 | 0.0 | 0.0 | 0.02 | 0.02 | 0.02 | 94 | 1014.5 |
| 20260904110234 | 64 | 40 | 0.0 | 0.0 | 0.02 | 0.02 | 0.02 | 94 | 1014.9 |
| 20260904105734 | 65 | 47 | 0.0 | 0.0 | 0.02 | 0.02 | 0.02 | 94 | 1014.9 |
| 20260904105234 | 65 | 355 | 0.0 | 0.0 | 0.01 | 0.01 | 0.01 | 94 | 1015.2 |
| 20260904104234 | 64 | 34 | 0.0 | 0.0 | 0.01 | 0.01 | 0.01 | 94 | 1015.2 |
| 20260904103234 | 64 | 348 | 0.0 | 0.0 | 0.01 | 0.01 | 0.01 | 94 | 1015.2 |
| 20260904102234 | 63 | 19 | 0.0 | 0.0 | 0.00 | 0.00 | 0.00 | 94 | 1015.0 |
| 20260904101734 | 63 | 347 | 0.0 | 0.0 | 0.00 | 0.00 | 0.00 | 94 | 1015.0 |
| 20260904095743 | 64 | 148 | 0.0 | 0.0 | 0.00 | 0.00 | 0.00 | 94 | 1014.5 |
| 20260904095243 | 64 | 148 | 0.0 | 0.0 | 0.00 | 0.00 | 0.00 | 94 | 1014.5 |
| 20260904094243 | 64 | 148 | 0.0 | 0.0 | 0.00 | 0.00 | 0.00 | 94 | 1014.5 |
| 20260904093743 | 64 | 148 | 0.0 | 0.0 | 0.00 | 0.00 | 0.00 | 94 | 1014.5 |
| 20260904093243 | 63 | 149 | 0.0 | 0.0 | 0.00 | 0.00 | 0.00 | 94 | 1014.2 |
| 20260904092743 | 63 | 103 | 0.0 | 0.0 | 0.00 | 0.00 | 0.00 | 94 | 1014.4 |
| 20260904092243 | 63 | 28 | 0.0 | 0.0 | 0.00 | 0.00 | 0.00 | 94 | 1014.3 |
| 20260904091743 | 63 | 28 | 0.0 | 0.0 | 0.00 | 0.00 | 0.00 | 94 | 1014.4 |
| 20260904091243 | 63 | 28 | 0.0 | 0.0 | 0.00 | 0.00 | 0.00 | 94 | 1014.4 |
| 20260904090743 | 63 | 28 | 0.0 | 0.0 | 0.00 | 0.00 | 0.00 | 94 | 1014.5 |
| 20260904090243 | 63 | 28 | 0.0 | 0.0 | 0.00 | 0.00 | 0.00 | 94 | 1014.6 |
| 20260904085743 | 63 | 28 | 0.0 | 0.0 | 0.00 | 0.00 | 0.00 | 94 | 1014.4 |
| 20260904085243 | 63 | 28 | 0.0 | 0.0 | 0.00 | 0.00 | 0.00 | 94 | 1014.0 |
| 20260904084743 | 63 | 79 | 0.0 | 0.0 | 0.00 | 0.00 | 0.00 | 94 | 1013.7 |
| 20260904084243 | 63 | 14 | 0.0 | 0.0 | 0.00 | 0.00 | 0.00 | 94 | 1013.8 |
| 20260904083743 | 63 | 15 | 0.0 | 0.0 | 0.00 | 0.00 | 0.00 | 94 | 1013.7 |
| 20260904083243 | 63 | 59 | 0.0 | 0.0 | 0.00 | 0.00 | 0.00 | 94 | 1013.7 |
| 20260904082243 | 63 | 69 | 0.0 | 0.0 | 0.00 | 0.00 | 0.00 | 94 | 1014.0 |
| 20260904081243 | 63 | 69 | 0.0 | 0.0 | 0.00 | 0.00 | 0.00 | 94 | 1013.9 |
| 20260904080743 | 63 | 19 | 0.0 | 0.0 | 0.00 | 0.00 | 0.00 | 94 | 1013.7 |
| 20260904080243 | 63 | 19 | 0.0 | 0.0 | 0.00 | 0.00 | 0.00 | 94 | 1013.7 |
| 20260904075743 | 63 | 19 | 0.0 | 0.0 | 0.00 | 0.00 | 0.00 | 94 | 1013.7 |
| 20260904075243 | 63 | 21 | 0.0 | 0.0 | 0.00 | 0.00 | 0.00 | 94 | 1013.7 |
| 20260904074743 | 63 | 21 | 0.0 | 0.0 | 0.00 | 0.00 | 0.00 | 94 | 1013.9 |
| 20260904074243 | 63 | 97 | 0.0 | 0.0 | 0.00 | 0.00 | 0.00 | 94 | 1014.1 |
| 20260904073743 | 63 | 97 | 0.0 | 0.0 | 0.00 | 0.00 | 0.00 | 94 | 1014.2 |
| 20260904073243 | 63 | 97 | 0.0 | 0.0 | 0.00 | 0.00 | 0.00 | 94 | 1014.3 |
| 20260904072743 | 63 | 97 | 0.0 | 0.0 | 0.00 | 0.00 | 0.00 | 94 | 1014.4 |
| 20260904072243 | 63 | 97 | 0.0 | 0.0 | 0.00 | 0.00 | 0.00 | 94 | 1014.1 |
| 20260904071743 | 63 | 97 | 0.0 | 0.0 | 0.00 | 0.00 | 0.00 | 94 | 1014.1 |
| 20260904071243 | 63 | 97 | 0.0 | 0.0 | 0.00 | 0.00 | 0.00 | 94 | 1014.2 |
| 20260904070743 | 63 | 97 | 0.0 | 0.0 | 0.00 | 0.00 | 0.00 | 94 | 1014.0 |
| 20260904070243 | 63 | 98 | 0.0 | 0.0 | 0.00 | 0.00 | 0.00 | 94 | 1014.2 |
| 20260904065743 | 63 | 98 | 0.0 | 0.0 | 0.00 | 0.00 | 0.00 | 94 | 1014.4 |
| 20260904064743 | 63 | 54 | 0.0 | 0.0 | 0.00 | 0.00 | 0.00 | 94 | 1014.7 |
| 20260904064243 | 63 | 54 | 0.0 | 0.0 | 0.00 | 0.00 | 0.00 | 94 | 1014.6 |
| 20260904063743 | 63 | 54 | 0.0 | 0.0 | 0.00 | 0.00 | 0.00 | 94 | 1014.3 |
| 20260904063243 | 63 | 75 | 0.0 | 0.0 | 0.00 | 0.00 | 0.00 | 94 | 1014.1 |
| 20260904062743 | 63 | 68 | 0.0 | 0.0 | 0.00 | 0.00 | 0.00 | 94 | 1014.2 |
| 20260904062243 | 63 | 73 | 0.0 | 0.0 | 0.00 | 0.00 | 0.00 | 94 | 1014.3 |
| 20260904061743 | 63 | 12 | 0.0 | 0.0 | 0.00 | 0.00 | 0.00 | 94 | 1014.4 |
| 20260904061243 | 63 | 336 | 0.0 | 0.0 | 0.00 | 0.00 | 0.00 | 94 | 1014.4 |
| 20260904055747 | 62 | 103 | 0.0 | 0.0 | 0.00 | 0.00 | 0.00 | 94 | 1014.5 |
| 20260904055247 | 62 | 103 | 0.0 | 0.0 | 0.00 | 0.00 | 0.00 | 94 | 1014.5 |
| 20260904054247 | 62 | 103 | 0.0 | 0.0 | 0.00 | 0.00 | 0.00 | 94 | 1014.8 |
| 20260904053747 | 62 | 103 | 0.0 | 0.0 | 0.00 | 0.00 | 0.00 | 94 | 1014.9 |
| 20260904052247 | 62 | 103 | 0.0 | 0.0 | 0.00 | 0.00 | 0.00 | 94 | 1015.1 |
| 20260904051747 | 62 | 103 | 0.0 | 0.0 | 0.00 | 0.00 | 0.00 | 94 | 1015.1 |
| 20260904051247 | 62 | 103 | 0.0 | 0.0 | 0.00 | 0.00 | 0.00 | 94 | 1015.0 |
| 20260904050747 | 62 | 103 | 0.0 | 0.0 | 0.00 | 0.00 | 0.00 | 94 | 1015.1 |
| 20260904050247 | 62 | 103 | 0.0 | 0.0 | 0.00 | 0.00 | 0.00 | 94 | 1015.2 |
| 20260904045747 | 62 | 103 | 0.0 | 0.0 | 0.00 | 0.00 | 0.00 | 94 | 1015.1 |
| 20260904044747 | 62 | 103 | 0.0 | 0.0 | 0.00 | 0.00 | 0.00 | 94 | 1015.1 |
| 20260904043747 | 62 | 68 | 0.0 | 0.0 | 0.00 | 0.00 | 0.00 | 94 | 1015.3 |
| 20260904043247 | 62 | 68 | 0.0 | 0.0 | 0.00 | 0.00 | 0.00 | 94 | 1015.3 |
| 20260904042747 | 62 | 68 | 0.0 | 0.0 | 0.00 | 0.00 | 0.00 | 94 | 1015.1 |
| 20260904042247 | 62 | 53 | 0.0 | 0.0 | 0.00 | 0.00 | 0.00 | 94 | 1015.2 |
| 20260904041747 | 62 | 355 | 0.0 | 0.0 | 0.00 | 0.00 | 0.00 | 94 | 1015.2 |
| 20260904040747 | 62 | 348 | 0.0 | 0.0 | 0.00 | 0.00 | 0.00 | 94 | 1015.5 |
| 20260904040247 | 62 | 348 | 0.0 | 0.0 | 0.00 | 0.00 | 0.00 | 94 | 1015.6 |
| 20260904035747 | 62 | 348 | 0.0 | 0.0 | 0.00 | 0.00 | 0.00 | 94 | 1015.5 |
| 20260904035247 | 62 | 348 | 0.0 | 0.0 | 0.00 | 0.00 | 0.00 | 94 | 1015.4 |
| 20260904034747 | 62 | 348 | 0.0 | 0.0 | 0.00 | 0.00 | 0.00 | 94 | 1015.5 |
| 20260904034247 | 62 | 348 | 0.0 | 0.0 | 0.00 | 0.00 | 0.00 | 94 | 1015.3 |
| 20260904033747 | 62 | 348 | 0.0 | 0.0 | 0.00 | 0.00 | 0.00 | 93 | 1015.1 |
| 20260904032747 | 62 | 348 | 0.0 | 0.0 | 0.00 | 0.00 | 0.00 | 93 | 1015.2 |
| 20260904032247 | 62 | 348 | 0.0 | 0.0 | 0.00 | 0.00 | 0.00 | 93 | 1015.1 |
| 20260904031247 | 62 | 348 | 0.0 | 0.0 | 0.00 | 0.00 | 0.00 | 93 | 1015.1 |
| 20260904030247 | 62 | 348 | 0.0 | 0.0 | 0.00 | 0.00 | 0.00 | 93 | 1015.0 |
| 20260904025747 | 62 | 348 | 0.0 | 0.0 | 0.00 | 0.00 | 0.00 | 93 | 1015.0 |
| 20260904025247 | 63 | 348 | 0.0 | 0.0 | 0.00 | 0.00 | 0.00 | 93 | 1014.9 |
| 20260904024746 | 63 | 348 | 0.0 | 0.0 | 0.00 | 0.00 | 0.00 | 92 | 1014.8 |
| 20260904024247 | 63 | 348 | 0.0 | 0.0 | 0.00 | 0.00 | 0.00 | 92 | 1014.9 |
| 20260904023747 | 63 | 348 | 0.0 | 0.0 | 0.00 | 0.00 | 0.00 | 92 | 1014.9 |
| 20260904021747 | 64 | 348 | 0.0 | 0.0 | 0.00 | 0.00 | 0.00 | 92 | 1014.8 |
| 20260904021247 | 64 | 348 | 0.0 | 0.0 | 0.00 | 0.00 | 0.00 | 92 | 1014.8 |
| 20260904015803 | 64 | 348 | 0.0 | 0.0 | 0.00 | 0.00 | 0.00 | 91 | 1014.8 |
| 20260904015306 | 64 | 348 | 0.0 | 0.0 | 0.00 | 0.00 | 0.00 | 91 | 1014.8 |
| 20260904014732 | 65 | 348 | 0.0 | 0.0 | 0.00 | 0.00 | 0.00 | 90 | 1014.9 |
| 20260904014302 | 65 | 348 | 0.0 | 0.0 | 0.00 | 0.00 | 0.00 | 90 | 1014.9 |
| 20260904013732 | 65 | 348 | 0.0 | 0.0 | 0.00 | 0.00 | 0.00 | 90 | 1014.8 |
| 20260904013303 | 65 | 348 | 0.0 | 0.0 | 0.00 | 0.00 | 0.00 | 90 | 1014.8 |
| 20260904012733 | 66 | 348 | 0.0 | 0.0 | 0.00 | 0.00 | 0.00 | 89 | 1014.8 |
| 20260904012233 | 66 | 348 | 0.0 | 0.0 | 0.00 | 0.00 | 0.00 | 89 | 1014.9 |
| 20260904011733 | 66 | 348 | 0.0 | 0.0 | 0.00 | 0.00 | 0.00 | 89 | 1014.9 |
| 20260904005732 | 67 | 348 | 0.0 | 0.0 | 0.00 | 0.00 | 0.00 | 87 | 1014.5 |
| 20260904005233 | 68 | 348 | 0.0 | 0.0 | 0.00 | 0.00 | 0.00 | 86 | 1014.1 |
| 20260904004303 | 68 | 348 | 0.0 | 0.0 | 0.00 | 0.00 | 0.00 | 85 | 1014.1 |
| 20260904003803 | 69 | 348 | 0.0 | 0.0 | 0.00 | 0.00 | 0.00 | 84 | 1014.1 |
| 20260904003233 | 69 | 348 | 0.0 | 0.0 | 0.00 | 0.00 | 0.00 | 84 | 1014.1 |
| 20260904002733 | 70 | 348 | 0.0 | 0.0 | 0.00 | 0.00 | 0.00 | 84 | 1014.0 |
| 20260904002306 | 70 | 348 | 0.0 | 0.0 | 0.00 | 0.00 | 0.00 | 83 | 1013.8 |
| 20260904001733 | 70 | 348 | 0.0 | 0.0 | 0.00 | 0.00 | 0.00 | 83 | 1013.8 |
| 20260904001303 | 71 | 348 | 0.0 | 0.0 | 0.00 | 0.00 | 0.00 | 82 | 1013.8 |
| 20260904000733 | 71 | 348 | 0.0 | 0.0 | 0.00 | 0.00 | 0.00 | 82 | 1013.7 |
| 20260904000303 | 71 | 348 | 0.0 | 0.0 | 0.00 | 0.00 | 0.00 | 82 | 1013.7 |
| 20260903235734 | 72 | 348 | 0.0 | 0.0 | 0.00 | 0.00 | 0.00 | 80 | 1013.8 |
| 20260903235233 | 72 | 329 | 0.0 | 0.0 | 0.00 | 0.00 | 0.00 | 79 | 1013.6 |
| 20260903234303 | 72 | 329 | 0.0 | 0.0 | 0.00 | 0.00 | 0.00 | 78 | 1013.6 |
| 20260903233733 | 73 | 329 | 0.0 | 0.0 | 0.00 | 0.00 | 0.00 | 77 | 1013.8 |
| 20260903233233 | 73 | 329 | 0.0 | 0.0 | 0.00 | 0.00 | 0.00 | 77 | 1013.8 |
| 20260903232733 | 73 | 329 | 0.0 | 0.0 | 0.00 | 0.00 | 0.00 | 77 | 1013.8 |
| 20260903230732 | 74 | 329 | 0.0 | 0.0 | 0.00 | 0.00 | 0.00 | 76 | 1013.7 |
| 20260903225732 | 75 | 338 | 0.0 | 0.0 | 0.00 | 0.00 | 0.00 | 73 | 1013.4 |
| 20260903225233 | 75 | 337 | 0.0 | 0.0 | 0.00 | 0.00 | 0.00 | 73 | 1013.5 |
| 20260903224802 | 75 | 315 | 0.0 | 0.0 | 0.00 | 0.00 | 0.00 | 71 | 1013.5 |
| 20260903224233 | 75 | 315 | 0.0 | 0.0 | 0.00 | 0.00 | 0.00 | 71 | 1013.4 |
| 20260903223733 | 75 | 313 | 0.0 | 0.0 | 0.00 | 0.00 | 0.00 | 71 | 1013.4 |
| 20260903223302 | 75 | 339 | 0.0 | 0.0 | 0.00 | 0.00 | 0.00 | 70 | 1013.4 |
| 20260903222305 | 75 | 341 | 0.0 | 0.0 | 0.00 | 0.00 | 0.00 | 69 | 1013.4 |